Time,TemperatureF,DewpointF,PressureIn,WindDirection,WindDirectionDegrees,WindSpeedMPH,WindSpeedGustMPH,Humidity,HourlyPrecipIn,Conditions,Clouds,dailyrainin,SoftwareType,DateUTC
2013-04-14 00:01:00,27.0,27.0,-100.00,West,261,15.0,24.0,100,0.00,,,-99.99,,2013-04-14 00:01:00,
2013-04-14 00:21:00,26.0,26.0,-100.00,West,264,12.0,17.0,100,0.04,,,-99.99,,2013-04-14 00:21:00,
2013-04-14 00:31:00,25.0,25.0,-100.00,West,271,12.0,25.0,100,0.16,,,-99.99,,2013-04-14 00:31:00,
2013-04-14 00:42:00,-999.0,-99.9,-100.00,West,270,15.0,23.0,-999,-99.99,,,-99.99,,2013-04-14 00:42:00,
2013-04-14 00:52:00,24.0,24.0,-100.00,West,267,12.0,21.0,100,0.06,,,-99.99,,2013-04-14 00:52:00,
2013-04-14 01:01:00,24.0,24.0,-100.00,West,261,13.0,22.0,100,0.00,,,-99.99,,2013-04-14 01:01:00,
2013-04-14 01:22:00,24.0,24.0,-100.00,WSW,248,11.0,16.0,100,0.00,,,-99.99,,2013-04-14 01:22:00,
2013-04-14 01:43:00,-999.0,-99.9,-100.00,West,270,6.0,10.0,-999,-99.99,,,-99.99,,2013-04-14 01:43:00,
2013-04-14 01:52:00,23.0,23.0,-100.00,NE,42,3.0,6.0,100,0.00,,,-99.99,,2013-04-14 01:52:00,
2013-04-14 02:11:00,23.0,23.0,-100.00,East,96,9.0,12.0,100,0.00,,,-99.99,,2013-04-14 02:11:00,
2013-04-14 02:31:00,23.0,23.0,-100.00,NE,52,6.0,9.0,100,0.20,,,-99.99,,2013-04-14 02:31:00,
2013-04-14 02:41:00,23.0,23.0,-100.00,NNW,339,3.0,6.0,100,0.59,,,-99.99,,2013-04-14 02:41:00,
2013-04-14 03:01:00,23.0,22.0,-100.00,West,267,11.0,16.0,100,0.16,,,-99.99,,2013-04-14 03:01:00,
2013-04-14 03:21:00,21.0,21.0,-100.00,West,267,12.0,19.0,100,0.00,,,-99.99,,2013-04-14 03:21:00,
2013-04-14 03:32:00,22.0,22.0,-100.00,West,267,14.0,21.0,100,0.00,,,-99.99,,2013-04-14 03:32:00,
2013-04-14 03:42:00,21.0,21.0,-100.00,West,270,11.0,18.0,100,0.00,,,-99.99,,2013-04-14 03:42:00,
2013-04-14 03:52:00,20.0,20.0,-100.00,West,265,14.0,23.0,99,-99.99,,,-99.99,,2013-04-14 03:52:00,
2013-04-14 04:02:00,20.0,20.0,-100.00,West,264,16.0,23.0,99,0.00,,,-99.99,,2013-04-14 04:02:00,
2013-04-14 04:13:00,-999.0,-99.9,-100.00,WSW,254,21.0,28.0,-999,-99.99,,,-99.99,,2013-04-14 04:13:00,
2013-04-14 04:22:00,19.0,18.0,-100.00,WSW,251,24.0,34.0,99,0.00,,,-99.99,,2013-04-14 04:22:00,
2013-04-14 04:32:00,18.0,18.0,-100.00,WSW,253,25.0,32.0,98,0.00,,,-99.99,,2013-04-14 04:32:00,
2013-04-14 04:42:00,18.0,18.0,-100.00,WSW,253,25.0,32.0,98,0.00,,,-99.99,,2013-04-14 04:42:00,
2013-04-14 04:52:00,18.0,17.0,-100.00,WSW,251,24.0,34.0,97,0.00,,,-99.99,,2013-04-14 04:52:00,
2013-04-14 05:01:00,18.0,17.0,-100.00,WSW,251,22.0,32.0,97,0.00,,,-99.99,,2013-04-14 05:01:00,
2013-04-14 05:11:00,18.0,17.0,-100.00,WSW,251,21.0,29.0,97,0.00,,,-99.99,,2013-04-14 05:11:00,
2013-04-14 05:22:00,18.0,17.0,-100.00,WSW,254,24.0,34.0,97,0.00,,,-99.99,,2013-04-14 05:22:00,
2013-04-14 05:32:00,17.0,17.0,-100.00,WSW,257,24.0,34.0,97,0.00,,,-99.99,,2013-04-14 05:32:00,
2013-04-14 05:42:00,17.0,17.0,-100.00,WSW,256,24.0,35.0,96,0.00,,,-99.99,,2013-04-14 05:42:00,
2013-04-14 05:52:00,17.0,16.0,-100.00,WSW,251,25.0,32.0,96,0.00,,,-99.99,,2013-04-14 05:52:00,
2013-04-14 06:01:00,17.0,16.0,-100.00,WSW,257,23.0,33.0,96,0.00,,,-99.99,,2013-04-14 06:01:00,
2013-04-14 06:11:00,17.0,16.0,-100.00,WSW,257,23.0,33.0,96,0.00,,,-99.99,,2013-04-14 06:11:00,
2013-04-14 06:21:00,16.0,15.0,-100.00,WSW,256,19.0,29.0,95,0.00,,,-99.99,,2013-04-14 06:21:00,
2013-04-14 06:31:00,16.0,15.0,-100.00,WSW,256,19.0,28.0,94,0.00,,,-99.99,,2013-04-14 06:31:00,
2013-04-14 06:42:00,16.0,14.0,-100.00,West,263,17.0,28.0,93,0.00,,,-99.99,,2013-04-14 06:42:00,
2013-04-14 06:51:00,15.0,13.0,-100.00,WSW,258,19.0,29.0,92,0.00,,,-99.99,,2013-04-14 06:51:00,
2013-04-14 07:01:00,15.0,13.0,-100.00,WSW,253,22.0,30.0,90,0.00,,,-99.99,,2013-04-14 07:01:00,
2013-04-14 07:21:00,15.0,11.0,-100.00,West,261,18.0,35.0,88,0.00,,,-99.99,,2013-04-14 07:21:00,
2013-04-14 07:31:00,14.0,11.0,-100.00,WSW,257,25.0,38.0,88,0.00,,,-99.99,,2013-04-14 07:31:00,
2013-04-14 07:41:00,14.0,11.0,-100.00,WSW,256,27.0,38.0,87,0.00,,,-99.99,,2013-04-14 07:41:00,
2013-04-14 07:52:00,14.0,10.0,-100.00,WSW,253,30.0,42.0,85,0.00,,,-99.99,,2013-04-14 07:52:00,
2013-04-14 08:01:00,13.0,9.0,-100.00,WSW,251,31.0,42.0,82,0.00,,,-99.99,,2013-04-14 08:01:00,
2013-04-14 08:11:00,13.0,10.0,-100.00,WSW,251,30.0,39.0,85,0.00,,,-99.99,,2013-04-14 08:11:00,
2013-04-14 08:33:00,-999.0,-99.9,-100.00,WSW,253,32.0,42.0,-999,-99.99,,,-99.99,,2013-04-14 08:33:00,
2013-04-14 08:41:00,13.0,8.0,-100.00,WSW,253,31.0,42.0,77,0.00,,,-99.99,,2013-04-14 08:41:00,
2013-04-14 08:51:00,13.0,8.0,-100.00,WSW,251,32.0,43.0,79,0.00,,,-99.99,,2013-04-14 08:51:00,
2013-04-14 09:02:00,13.0,8.0,-100.00,WSW,254,30.0,44.0,78,0.00,,,-99.99,,2013-04-14 09:02:00,
2013-04-14 09:11:00,13.0,7.0,-100.00,WSW,256,31.0,45.0,76,0.00,,,-99.99,,2013-04-14 09:11:00,
2013-04-14 09:21:00,13.0,7.0,-100.00,WSW,256,29.0,42.0,77,0.00,,,-99.99,,2013-04-14 09:21:00,
2013-04-14 09:32:00,13.0,6.0,-100.00,WSW,257,31.0,43.0,75,0.00,,,-99.99,,2013-04-14 09:32:00,
2013-04-14 09:42:00,13.0,6.0,-100.00,WSW,256,32.0,45.0,74,0.00,,,-99.99,,2013-04-14 09:42:00,
2013-04-14 09:53:00,13.0,6.0,-100.00,WSW,253,34.0,44.0,74,0.00,,,-99.99,,2013-04-14 09:53:00,
2013-04-14 10:02:00,13.0,6.0,-100.00,WSW,250,31.0,42.0,73,0.00,,,-99.99,,2013-04-14 10:02:00,
2013-04-14 10:12:00,13.0,6.0,-100.00,WSW,254,28.0,40.0,73,0.00,,,-99.99,,2013-04-14 10:12:00,
2013-04-14 10:22:00,13.0,5.0,-100.00,WSW,251,30.0,40.0,70,0.00,,,-99.99,,2013-04-14 10:22:00,
2013-04-14 10:32:00,13.0,5.0,-100.00,WSW,253,30.0,40.0,71,0.00,,,-99.99,,2013-04-14 10:32:00,
2013-04-14 10:42:00,13.0,5.0,-100.00,WSW,257,29.0,40.0,72,0.00,,,-99.99,,2013-04-14 10:42:00,
2013-04-14 10:52:00,13.0,5.0,-100.00,WSW,258,25.0,36.0,72,0.00,,,-99.99,,2013-04-14 10:52:00,
2013-04-14 11:02:00,13.0,5.0,-100.00,WSW,257,26.0,40.0,72,0.00,,,-99.99,,2013-04-14 11:02:00,
2013-04-14 11:11:00,12.0,6.0,-100.00,WSW,256,26.0,40.0,74,0.00,,,-99.99,,2013-04-14 11:11:00,
2013-04-14 11:22:00,12.0,6.0,-100.00,WSW,257,28.0,35.0,74,0.00,,,-99.99,,2013-04-14 11:22:00,
2013-04-14 11:32:00,12.0,6.0,-100.00,WSW,257,28.0,39.0,75,0.00,,,-99.99,,2013-04-14 11:32:00,
2013-04-14 11:41:00,12.0,6.0,-100.00,West,261,27.0,42.0,76,0.00,,,-99.99,,2013-04-14 11:41:00,
2013-04-14 11:52:00,12.0,6.0,-100.00,WSW,257,30.0,43.0,75,0.00,,,-99.99,,2013-04-14 11:52:00,
2013-04-14 12:01:00,12.0,6.0,-100.00,WSW,254,31.0,40.0,75,0.00,,,-99.99,,2013-04-14 12:01:00,
2013-04-14 12:11:00,12.0,6.0,-100.00,WSW,253,30.0,40.0,75,0.00,,,-99.99,,2013-04-14 12:11:00,
2013-04-14 12:21:00,12.0,5.0,-100.00,WSW,258,30.0,44.0,74,0.00,,,-99.99,,2013-04-14 12:21:00,
2013-04-14 12:31:00,12.0,6.0,-100.00,West,260,26.0,36.0,77,0.00,,,-99.99,,2013-04-14 12:31:00,
2013-04-14 12:41:00,12.0,6.0,-100.00,WSW,253,27.0,39.0,76,0.00,,,-99.99,,2013-04-14 12:41:00,
2013-04-14 12:51:00,12.0,6.0,-100.00,WSW,253,27.0,34.0,77,0.00,,,-99.99,,2013-04-14 12:51:00,
2013-04-14 13:01:00,12.0,5.0,-100.00,WSW,258,27.0,39.0,74,0.00,,,-99.99,,2013-04-14 13:01:00,
2013-04-14 13:11:00,12.0,6.0,-100.00,WSW,257,27.0,39.0,76,0.00,,,-99.99,,2013-04-14 13:11:00,
2013-04-14 13:22:00,12.0,6.0,-100.00,WSW,254,29.0,40.0,76,0.00,,,-99.99,,2013-04-14 13:22:00,
2013-04-14 13:32:00,12.0,6.0,-100.00,WSW,256,28.0,39.0,74,0.00,,,-99.99,,2013-04-14 13:32:00,
2013-04-14 13:41:00,12.0,6.0,-100.00,WSW,251,31.0,41.0,74,0.00,,,-99.99,,2013-04-14 13:41:00,
2013-04-14 13:52:00,13.0,5.0,-100.00,WSW,254,30.0,40.0,71,0.00,,,-99.99,,2013-04-14 13:52:00,
2013-04-14 14:01:00,13.0,6.0,-100.00,WSW,257,31.0,42.0,73,0.00,,,-99.99,,2013-04-14 14:01:00,
2013-04-14 14:11:00,13.0,5.0,-100.00,WSW,257,27.0,36.0,71,0.00,,,-99.99,,2013-04-14 14:11:00,
2013-04-14 14:21:00,13.0,6.0,-100.00,WSW,254,29.0,39.0,72,0.00,,,-99.99,,2013-04-14 14:21:00,
2013-04-14 14:32:00,13.0,5.0,-100.00,WSW,253,30.0,40.0,69,0.00,,,-99.99,,2013-04-14 14:32:00,
2013-04-14 14:41:00,13.0,6.0,-100.00,WSW,251,32.0,40.0,71,0.00,,,-99.99,,2013-04-14 14:41:00,
2013-04-14 14:52:00,14.0,6.0,-100.00,WSW,257,30.0,40.0,70,0.00,,,-99.99,,2013-04-14 14:52:00,
2013-04-14 15:01:00,14.0,6.0,-100.00,WSW,258,30.0,39.0,70,0.00,,,-99.99,,2013-04-14 15:01:00,
2013-04-14 15:11:00,14.0,6.0,-100.00,WSW,258,29.0,38.0,69,0.00,,,-99.99,,2013-04-14 15:11:00,
2013-04-14 15:22:00,15.0,6.0,-100.00,West,261,27.0,39.0,69,0.00,,,-99.99,,2013-04-14 15:22:00,
2013-04-14 15:34:00,-999.0,-99.9,-100.00,WSW,258,29.0,39.0,-999,-99.99,,,-99.99,,2013-04-14 15:34:00,
2013-04-14 15:42:00,15.0,7.0,-100.00,WSW,258,29.0,39.0,68,0.00,,,-99.99,,2013-04-14 15:42:00,
2013-04-14 15:52:00,16.0,7.0,-100.00,WSW,258,28.0,38.0,67,0.00,,,-99.99,,2013-04-14 15:52:00,
2013-04-14 16:03:00,17.0,8.0,-100.00,West,263,26.0,37.0,67,0.00,,,-99.99,,2013-04-14 16:03:00,
2013-04-14 16:13:00,-999.0,-99.9,-100.00,West,263,24.0,35.0,-999,-99.99,,,-99.99,,2013-04-14 16:13:00,
2013-04-14 16:22:00,17.0,9.0,-100.00,West,260,26.0,37.0,69,0.00,,,-99.99,,2013-04-14 16:22:00,
2013-04-14 16:32:00,18.0,8.0,-100.00,WSW,256,25.0,39.0,67,0.00,,,-99.99,,2013-04-14 16:32:00,
2013-04-14 16:42:00,18.0,8.0,-100.00,WSW,258,23.0,35.0,66,0.00,,,-99.99,,2013-04-14 16:42:00,
2013-04-14 16:52:00,18.0,9.0,-100.00,WSW,258,23.0,34.0,66,0.00,,,-99.99,,2013-04-14 16:52:00,
2013-04-14 17:01:00,19.0,9.0,-100.00,WSW,258,26.0,35.0,64,0.00,,,-99.99,,2013-04-14 17:01:00,
2013-04-14 17:11:00,19.0,9.0,-100.00,West,261,24.0,37.0,64,0.00,,,-99.99,,2013-04-14 17:11:00,
2013-04-14 17:22:00,19.0,10.0,-100.00,WSW,257,27.0,39.0,65,0.00,,,-99.99,,2013-04-14 17:22:00,
2013-04-14 17:32:00,20.0,9.0,-100.00,West,261,27.0,41.0,62,0.00,,,-99.99,,2013-04-14 17:32:00,
2013-04-14 17:41:00,20.0,9.0,-100.00,West,261,27.0,40.0,64,0.00,,,-99.99,,2013-04-14 17:41:00,
2013-04-14 17:52:00,20.0,10.0,-100.00,West,264,22.0,32.0,64,0.00,,,-99.99,,2013-04-14 17:52:00,
2013-04-14 18:01:00,20.0,9.0,-100.00,West,260,25.0,37.0,61,0.00,,,-99.99,,2013-04-14 18:01:00,
2013-04-14 18:11:00,20.0,9.0,-100.00,West,260,26.0,35.0,62,0.00,,,-99.99,,2013-04-14 18:11:00,
2013-04-14 18:21:00,21.0,10.0,-100.00,West,265,22.0,33.0,61,0.00,,,-99.99,,2013-04-14 18:21:00,
2013-04-14 18:32:00,21.0,10.0,-100.00,WSW,258,27.0,41.0,61,0.00,,,-99.99,,2013-04-14 18:32:00,
2013-04-14 18:43:00,-999.0,-99.9,-100.00,West,268,20.0,30.0,-999,-99.99,,,-99.99,,2013-04-14 18:43:00,
2013-04-14 18:51:00,22.0,9.0,-100.00,West,260,24.0,38.0,57,0.00,,,-99.99,,2013-04-14 18:51:00,
2013-04-14 19:02:00,23.0,9.0,-100.00,West,265,19.0,30.0,56,0.00,,,-99.99,,2013-04-14 19:02:00,
2013-04-14 19:11:00,23.0,9.0,-100.00,West,265,18.0,27.0,54,0.00,,,-99.99,,2013-04-14 19:11:00,
2013-04-14 19:21:00,23.0,8.0,-100.00,West,261,24.0,40.0,54,0.00,,,-99.99,,2013-04-14 19:21:00,
2013-04-14 19:32:00,24.0,9.0,-100.00,West,263,23.0,37.0,53,0.00,,,-99.99,,2013-04-14 19:32:00,
2013-04-14 19:52:00,22.0,11.0,-100.00,West,265,22.0,32.0,61,0.00,,,-99.99,,2013-04-14 19:52:00,
2013-04-14 20:02:00,23.0,9.0,-100.00,West,263,24.0,40.0,55,0.00,,,-99.99,,2013-04-14 20:02:00,
2013-04-14 20:11:00,24.0,9.0,-100.00,West,267,21.0,35.0,54,0.00,,,-99.99,,2013-04-14 20:11:00,
2013-04-14 20:21:00,24.0,9.0,-100.00,West,261,21.0,32.0,52,0.00,,,-99.99,,2013-04-14 20:21:00,
2013-04-14 20:31:00,24.0,10.0,-100.00,West,263,21.0,31.0,53,0.00,,,-99.99,,2013-04-14 20:31:00,
2013-04-14 20:42:00,24.0,10.0,-100.00,West,263,19.0,30.0,55,0.00,,,-99.99,,2013-04-14 20:42:00,
2013-04-14 20:52:00,27.0,13.0,-100.00,West,267,14.0,25.0,56,0.00,,,-99.99,,2013-04-14 20:52:00,
2013-04-14 21:02:00,-999.0,-99.9,-100.00,WSW,257,19.0,27.0,-999,-99.99,,,-99.99,,2013-04-14 21:02:00,
2013-04-14 21:11:00,24.0,9.0,-100.00,West,261,20.0,30.0,54,0.00,,,-99.99,,2013-04-14 21:11:00,
2013-04-14 21:22:00,22.0,11.0,-100.00,West,260,17.0,29.0,62,-99.99,,,-99.99,,2013-04-14 21:22:00,
2013-04-14 21:32:00,22.0,10.0,-100.00,West,267,13.0,21.0,60,0.00,,,-99.99,,2013-04-14 21:32:00,
2013-04-14 21:42:00,22.0,9.0,-100.00,West,268,12.0,21.0,56,0.00,,,-99.99,,2013-04-14 21:42:00,
2013-04-14 21:54:00,-999.0,-99.9,-100.00,West,271,15.0,24.0,-999,-99.99,,,-99.99,,2013-04-14 21:54:00,
2013-04-14 22:02:00,23.0,9.0,-100.00,West,271,15.0,27.0,54,0.00,,,-99.99,,2013-04-14 22:02:00,
2013-04-14 22:12:00,23.0,9.0,-100.00,West,267,13.0,22.0,54,0.00,,,-99.99,,2013-04-14 22:12:00,
2013-04-14 22:22:00,22.0,8.0,-100.00,West,263,12.0,21.0,52,0.00,,,-99.99,,2013-04-14 22:22:00,
2013-04-14 22:32:00,23.0,9.0,-100.00,West,272,10.0,18.0,55,0.00,,,-99.99,,2013-04-14 22:32:00,
2013-04-14 22:42:00,22.0,10.0,-100.00,West,277,11.0,19.0,59,0.00,,,-99.99,,2013-04-14 22:42:00,
2013-04-14 22:52:00,24.0,11.0,-100.00,West,265,11.0,21.0,60,0.00,,,-99.99,,2013-04-14 22:52:00,
2013-04-14 23:01:00,22.0,10.0,-100.00,WSW,258,11.0,17.0,58,0.00,,,-99.99,,2013-04-14 23:01:00,
2013-04-14 23:12:00,24.0,10.0,-100.00,WSW,257,11.0,17.0,53,0.00,,,-99.99,,2013-04-14 23:12:00,
2013-04-14 23:22:00,24.0,9.0,-100.00,WSW,257,12.0,19.0,53,0.00,,,-99.99,,2013-04-14 23:22:00,
2013-04-14 23:32:00,24.0,9.0,-100.00,WSW,243,11.0,17.0,53,0.00,,,-99.99,,2013-04-14 23:32:00,
2013-04-14 23:42:00,24.0,9.0,-100.00,West,260,11.0,17.0,52,0.00,,,-99.99,,2013-04-14 23:42:00,
2013-04-14 23:52:00,22.0,8.0,-100.00,WNW,282,7.0,13.0,52,0.00,,,-99.99,,2013-04-14 23:52:00,